Flag for Germany Weather past 2 weeks in Heidenheim an der Brenz, Baden-Württemberg, Germany

47 °F


Feels Like: 47 °F
Forecast: 42 / 57 °F
Wind: 2 mph from Northwest

Location: Stoetten

Current Time: Oct 9, 2015 at 5:57:45 AM

Latest Report: Oct 9, 2015 at 5:00 AM

Visibility: 11 mi

Pressure: 30.14 "Hg

Humidity: 94%

Dew point: 45 °F

Location of Heidenheim an der BrenzLocation

Historic Weather in Heidenheim an der Brenz — Graph


Heidenheim an der Brenz temperature yesterday

Maximum temperature yesterday: 53 °F (at 3:00 PM)
Minimum temperature yesterday: 47 °F (at 7:00 AM)
Average temperature yesterday: 49 °F

Past Weeks' High & Low Weather Summary

High65 °F (Oct 6, 12:00 PM)100% (Sep 24, 4:00 AM)30.52 "Hg (Sep 24, 4:00 AM)
Low36 °F (Oct 1, 8:00 AM)43% (Oct 2, 4:00 PM)29.67 "Hg (Oct 6, 3:00 PM)
Average51 °F77%30.17 "Hg
* Reported Sep 24 4:00 AM — Oct 9 4:00 AM, Heidenheim an der Brenz, Weather by CustomWeather, © 2015

Note: Actual official high and low records may vary slightly from our data, if they occured in-between our weather recording intervals... More about our weather records


Heidenheim an der Brenz weather history for previous 24 hours

Time TempWeatherWind HumidityBarometerVisibility
4:00 AM
Fri, Oct 9
47 °FOvercast.2 mph93%30.15 "Hg14 mi
3:00 AM48 °FOvercast.1 mph91%30.16 "Hg18 mi
2:00 AM48 °FOvercast.1 mph92%30.16 "Hg22 mi
1:00 AM48 °FDrizzle. Overcast.2 mph93%30.17 "Hg14 mi
12:00 AM48 °FOvercast.2 mph92%30.17 "Hg19 mi
11:00 PM
Thu, Oct 8
48 °FOvercast.1 mph90%30.18 "Hg25 mi
10:00 PM49 °FOvercast.1 mph90%30.17 "Hg28 mi
9:00 PM49 °FOvercast.2 mph87%30.16 "Hg43 mi
8:00 PM50 °FOvercast.2 mph84%30.16 "Hg47 mi
7:00 PM50 °FLight rain. Overcast.1 mph82%30.15 "Hg47 mi
6:00 PM51 °FOvercast.2 mph78%30.14 "Hg47 mi
5:00 PM52 °FLight rain. Overcast.2 mph78%30.13 "Hg5 mi
4:00 PM53 °FOvercast.3 mph78%30.12 "Hg43 mi
3:00 PM53 °FOvercast.2 mph77%30.12 "Hg43 mi
2:00 PM53 °FOvercast.2 mph77%30.12 "Hg43 mi
1:00 PM53 °FPartly sunny.3 mph76%30.12 "Hg43 mi
12:00 PM51 °FPartly sunny.5 mph83%30.13 "Hg37 mi
11:00 AM49 °FScattered clouds.5 mph93%30.14 "Hg25 mi
10:00 AM48 °FLow clouds.3 mph95%30.13 "Hg9 mi
9:00 AM47 °FFog.2 mph100%30.12 "Hg4 mi
8:00 AM47 °FFog.3 mph100%30.11 "Hg0 mi
7:00 AM47 °FFog.2 mph100%30.11 "Hg2 mi
5:00 AM47 °FLow clouds.5 mph100%30.10 "Hg6 mi
Weather by CustomWeather, © 2015

See weather overviewHow to use our weather pages